RPA1128 KCLT-KBHM

Flight info

Callsign RPA1128
Flight time N/A
Altitude 38000
Route ESTRR5 IPTAY DCT CHOPZ DCT THRSR DCT KIOSK DCT
Aircraft CRJ7/M-SDFGIRWY/S

Departure

Time 2026-05-05 19:11
Airport Charlotte Douglas International Airport (KCLT)

Arrival

Time N/A
Airport Birmingham-Shuttlesworth International Airport (KBHM)
Time Latitude Longitude Altitude Speed Heading
2026-05-05 18:34 35.22609 -80.94000 752 ft 0 kts 217°
2026-05-05 18:38 35.22610 -80.94000 752 ft 0 kts 217°
2026-05-05 19:00 35.22612 -80.93998 769 ft 2 kts 215°
2026-05-05 19:00 35.22627 -80.93994 738 ft 2 kts 161°
2026-05-05 19:00 35.22638 -80.94008 749 ft 2 kts 105°
2026-05-05 19:01 35.22639 -80.94019 750 ft 1 kts 91°
2026-05-05 19:07 35.22639 -80.94013 752 ft 7 kts 92°
2026-05-05 19:07 35.22624 -80.93897 751 ft 14 kts 115°
2026-05-05 19:08 35.22547 -80.93845 751 ft 12 kts 171°
2026-05-05 19:08 35.22503 -80.93765 753 ft 13 kts 89°
2026-05-05 19:08 35.22504 -80.93752 753 ft 0 kts 88°
2026-05-05 19:09 35.22505 -80.93723 754 ft 9 kts 86°
2026-05-05 19:09 35.22497 -80.93631 751 ft 10 kts 133°
2026-05-05 19:09 35.22456 -80.93614 750 ft 0 kts 175°
2026-05-05 19:10 35.22451 -80.93614 750 ft 7 kts 175°
2026-05-05 19:10 35.22137 -80.93589 748 ft 86 kts 176°
2026-05-05 19:10 35.21368 -80.93528 741 ft 132 kts 179°
2026-05-05 19:10 35.20355 -80.93428 855 ft 155 kts 179°
2026-05-05 19:11 35.19302 -80.93292 1524 ft 146 kts 177°
2026-05-05 19:11 35.18290 -80.93126 2362 ft 145 kts 174°
2026-05-05 19:11 35.17427 -80.92489 3278 ft 155 kts 129°
2026-05-05 19:11 35.16951 -80.91277 3954 ft 166 kts 122°
2026-05-05 19:12 35.16386 -80.89911 4498 ft 190 kts 123°
2026-05-05 19:12 35.15757 -80.88400 5094 ft 207 kts 122°
2026-05-05 19:12 35.15085 -80.86815 5814 ft 215 kts 122°
2026-05-05 19:12 35.14394 -80.85178 6609 ft 219 kts 122°
2026-05-05 19:13 35.13593 -80.83604 7312 ft 217 kts 136°
2026-05-05 19:13 35.12553 -80.82251 8034 ft 219 kts 140°
2026-05-05 19:13 35.11456 -80.80937 8768 ft 222 kts 142°
2026-05-05 19:13 35.10268 -80.79741 9461 ft 220 kts 157°
2026-05-05 19:14 35.08878 -80.78933 10164 ft 224 kts 161°
2026-05-05 19:14 35.07438 -80.78220 11050 ft 224 kts 170°
2026-05-05 19:14 35.05906 -80.78114 11833 ft 222 kts 186°
2026-05-05 19:14 35.04342 -80.78069 12611 ft 231 kts 169°
2026-05-05 19:15 35.02804 -80.77391 13373 ft 237 kts 166°
2026-05-05 19:15 35.01203 -80.77324 14050 ft 231 kts 204°
2026-05-05 19:15 34.99722 -80.78111 14722 ft 234 kts 205°
2026-05-05 19:15 34.98182 -80.78832 15363 ft 241 kts 203°
2026-05-05 19:16 34.96570 -80.79548 15714 ft 260 kts 203°
2026-05-05 19:16 34.94785 -80.80346 15880 ft 287 kts 203°
2026-05-05 19:16 34.92829 -80.81270 15965 ft 315 kts 209°
2026-05-05 19:16 34.90932 -80.82801 16021 ft 341 kts 219°
2026-05-05 19:17 34.89049 -80.84743 16048 ft 368 kts 228°
2026-05-05 19:17 34.87705 -80.87480 16062 ft 392 kts 252°
2026-05-05 19:17 34.87395 -80.90864 16123 ft 417 kts 274°